CW2340 Weather Reports


Display with metric or nautical units.
time (UTC)temp
F
wind
direction
speed
MPH
gust
MPH
rain 1hr
in
rain 24hr
in
rain mn
in
humidity
%
barometer
mb
20260507031504 53 325 1.0 2.0 0.12 0.48 0.48 99 991.4
20260507031004 54 279 0.0 2.0 0.11 0.46 0.46 99 991.4
20260507030004 54 254 0.0 1.0 0.10 0.45 0.45 99 991.3
20260507025504 54 328 0.0 2.0 0.09 0.44 0.44 99 991.0
20260507025004 54 6 0.0 1.0 0.07 0.43 0.43 99 991.1
20260507024504 55 341 0.0 1.0 0.05 0.41 0.41 99 990.9
20260507024004 55 353 0.0 6.0 0.04 0.39 0.39 99 991.1
20260507023504 55 20 1.0 6.0 0.04 0.39 0.39 99 990.9
20260507023004 55 346 1.0 3.0 0.03 0.38 0.38 99 990.7
20260507022504 57 357 2.0 3.0 0.03 0.38 0.38 99 990.7
20260507021504 58 214 1.0 5.0 0.00 0.35 0.35 99 990.3
20260507021004 58 280 1.0 5.0 0.00 0.35 0.35 99 990.4
20260507020504 58 263 1.0 6.0 0.00 0.35 0.35 99 990.3
20260507020004 58 347 1.0 8.0 0.00 0.35 0.35 99 990.3
20260507015504 58 220 1.0 6.0 0.00 0.35 0.35 99 990.4
20260507015004 58 286 1.0 6.0 0.00 0.35 0.35 99 990.2
20260507014004 58 257 1.0 2.0 0.00 0.35 0.35 99 990.4
20260507013504 58 152 1.0 6.0 0.00 0.35 0.35 99 990.4
20260507013004 58 302 1.0 3.0 0.00 0.35 0.35 99 990.3
20260507012504 58 268 1.0 3.0 0.00 0.35 0.35 99 990.2
20260507012004 58 253 0.0 6.0 0.00 0.35 0.35 99 990.4
20260507011504 58 344 1.0 5.0 0.00 0.35 0.35 99 990.3
20260507011004 58 222 2.0 5.0 0.00 0.35 0.35 99 990.2
20260507010004 58 252 1.0 5.0 0.00 0.35 0.35 99 990.0
20260507005504 58 273 2.0 10.0 0.00 0.35 0.35 99 990.0
20260507005004 58 260 2.0 10.0 0.00 0.35 0.35 99 989.9
20260507004504 58 245 1.0 9.0 0.00 0.35 0.35 99 989.9
20260507004004 58 95 1.0 6.0 0.00 0.35 0.35 99 990.1
20260507003004 58 208 2.0 8.0 0.00 0.35 0.35 99 990.1
20260507002504 58 184 2.0 7.0 0.00 0.35 0.35 99 990.3
20260507002004 58 188 2.0 7.0 0.00 0.35 0.35 99 990.1
20260507001504 58 146 2.0 6.0 0.00 0.35 0.35 99 990.2
20260507001005 58 34 1.0 6.0 0.00 0.35 0.35 99 990.2
20260507000505 58 219 1.0 7.0 0.00 0.35 0.35 99 990.2
20260507000004 58 143 1.0 5.0 0.00 0.35 0.35 99 990.2
20260506235504 58 178 3.0 6.0 0.00 0.35 0.35 99 990.3
20260506235004 58 224 2.0 6.0 0.00 0.35 0.35 99 990.0
20260506234004 58 276 3.0 6.0 0.00 0.35 0.35 99 989.9
20260506233504 58 170 2.0 6.0 0.00 0.35 0.35 99 990.1
20260506233004 58 243 1.0 5.0 0.01 0.35 0.35 99 989.8
20260506232504 58 259 2.0 7.0 0.02 0.35 0.35 99 989.8
20260506232004 58 209 1.0 5.0 0.03 0.35 0.35 99 989.6
20260506231004 58 275 1.0 3.0 0.03 0.35 0.35 99 989.6
20260506230504 58 215 1.0 6.0 0.04 0.35 0.35 99 989.6
20260506230004 58 172 1.0 6.0 0.04 0.35 0.35 99 989.6
20260506224504 57 268 1.0 9.0 0.06 0.35 0.35 99 989.6
20260506223504 58 187 1.0 5.0 0.06 0.35 0.35 98 989.4
20260506223005 58 118 1.0 2.0 0.05 0.34 0.34 98 989.5
20260506222004 58 225 2.0 5.0 0.03 0.32 0.32 98 989.7
20260506221504 58 214 1.0 7.0 0.03 0.32 0.32 98 989.5
20260506221004 58 351 1.0 3.0 0.03 0.32 0.32 98 989.6
20260506220504 58 242 0.0 3.0 0.03 0.31 0.31 98 989.5
20260506220004 58 240 2.0 6.0 0.03 0.31 0.31 98 989.5
20260506215504 58 182 1.0 7.0 0.02 0.29 0.29 98 989.6
20260506215004 58 237 1.0 6.0 0.02 0.29 0.29 98 989.7
20260506214505 58 219 1.0 5.0 0.03 0.29 0.29 98 989.3
20260506214004 58 237 1.0 3.0 0.04 0.29 0.29 98 989.6
20260506213504 58 240 1.0 5.0 0.04 0.29 0.29 98 989.7
20260506213004 58 156 1.0 5.0 0.05 0.29 0.29 98 989.6
20260506212503 58 194 3.0 6.0 0.05 0.29 0.29 98 989.7
20260506211504 58 188 1.0 3.0 0.06 0.29 0.29 98 989.7
20260506210504 58 229 1.0 3.0 0.05 0.28 0.28 98 989.8
20260506210004 58 216 1.0 6.0 0.06 0.28 0.28 98 989.9
20260506205504 58 249 1.0 3.0 0.05 0.27 0.27 98 990.1
20260506205004 58 226 1.0 3.0 0.05 0.27 0.27 98 990.1
20260506204504 58 186 2.0 6.0 0.04 0.26 0.26 98 990.0
20260506204004 58 235 1.0 5.0 0.04 0.25 0.25 97 990.0
20260506203504 58 212 1.0 6.0 0.04 0.25 0.25 97 990.0
20260506203004 58 160 2.0 6.0 0.03 0.24 0.24 97 990.2
20260506202504 58 185 1.0 6.0 0.03 0.24 0.24 97 990.1
20260506202004 58 192 2.0 6.0 0.03 0.24 0.24 97 990.0
20260506201504 58 186 2.0 7.0 0.02 0.23 0.23 97 990.2
20260506201004 59 179 1.0 2.0 0.02 0.23 0.23 97 990.0
20260506200504 58 178 1.0 7.0 0.02 0.23 0.23 97 990.2
20260506195004 58 203 2.0 6.0 0.04 0.22 0.22 96 990.2
20260506194504 58 220 4.0 8.0 0.04 0.22 0.22 96 990.4
20260506194003 59 211 1.0 5.0 0.03 0.21 0.21 97 990.4
20260506193504 59 202 1.0 5.0 0.04 0.21 0.21 97 990.5
20260506192504 58 253 1.0 8.0 0.04 0.21 0.21 96 990.5
20260506192004 58 196 3.0 7.0 0.05 0.21 0.21 96 990.6
20260506191005 58 236 2.0 5.0 0.06 0.21 0.21 96 990.8
20260506190504 58 237 1.0 6.0 0.06 0.21 0.21 96 990.6
20260506190005 58 230 2.0 8.0 0.05 0.20 0.20 96 990.6
20260506185504 58 228 3.0 10.0 0.06 0.20 0.20 96 990.9
20260506185004 58 150 3.0 7.0 0.05 0.18 0.18 96 991.1
20260506184504 58 139 2.0 8.0 0.06 0.18 0.18 96 991.2
20260506184004 58 158 3.0 8.0 0.07 0.18 0.18 95 991.0
20260506183503 58 203 2.0 9.0 0.09 0.17 0.17 95 990.9
20260506183005 58 139 2.0 6.0 0.11 0.17 0.17 95 990.8
20260506182504 58 250 1.0 8.0 0.13 0.17 0.17 95 990.6
20260506182004 58 189 2.0 8.0 0.14 0.16 0.16 95 990.7
20260506181504 58 155 2.0 6.0 0.15 0.16 0.16 95 990.6
20260506180504 59 154 1.0 5.0 0.15 0.15 0.15 94 990.9
20260506180005 59 206 2.0 6.0 0.15 0.15 0.15 94 991.3
20260506175004 59 207 2.0 3.0 0.13 0.13 0.13 94 991.3
20260506174004 60 189 2.0 6.0 0.11 0.11 0.11 93 991.6
20260506173504 60 37 1.0 5.0 0.08 0.08 0.08 92 991.9
20260506173004 60 200 1.0 3.0 0.06 0.06 0.06 91 991.8
20260506172504 61 206 2.0 8.0 0.04 0.04 0.04 90 991.8
20260506172004 62 179 1.0 2.0 0.02 0.02 0.02 89 991.9
20260506171504 62 292 0.0 3.0 0.01 0.01 0.01 87 992.2
20260506171004 62 191 1.0 6.0 0.01 0.01 0.01 85 992.2
20260506170504 63 248 2.0 5.0 0.00 0.00 0.00 82 992.3
20260506170004 64 204 2.0 7.0 0.00 0.00 0.00 80 992.3
20260506164504 66 264 5.0 21.0 0.00 0.00 0.00 72 992.1
20260506164004 67 34 3.0 8.0 0.00 0.00 0.00 71 991.8
20260506163004 67 237 4.0 9.0 0.00 0.00 0.00 70 991.8
20260506162504 67 221 3.0 10.0 0.00 0.00 0.00 70 991.8
20260506162004 67 226 2.0 8.0 0.00 0.00 0.00 70 991.9
20260506161504 67 260 2.0 10.0 0.00 0.00 0.00 71 992.1
20260506161005 67 146 3.0 10.0 0.00 0.00 0.00 70 992.0
20260506160004 66 279 3.0 14.0 0.00 0.00 0.00 71 992.2
20260506155504 67 184 3.0 10.0 0.00 0.00 0.00 70 992.3
20260506155004 67 284 3.0 14.0 0.00 0.00 0.00 70 992.4
20260506154004 67 223 3.0 13.0 0.00 0.00 0.00 69 992.3
20260506153504 67 179 5.0 13.0 0.00 0.00 0.00 68 992.3
20260506153004 67 270 2.0 8.0 0.00 0.00 0.00 69 992.4
20260506152504 68 306 3.0 10.0 0.00 0.00 0.00 68 992.2
20260506152004 68 206 2.0 7.0 0.00 0.00 0.00 68 992.3
20260506151504 68 199 2.0 8.0 0.00 0.00 0.00 69 992.3
20260506151004 68 114 3.0 18.0 0.00 0.00 0.00 68 992.4
20260506150505 68 219 1.0 10.0 0.00 0.00 0.00 69 992.4
20260506150005 67 240 3.0 12.0 0.00 0.00 0.00 69 992.3
20260506144004 67 253 3.0 7.0 0.00 0.00 0.00 69 992.6
20260506143504 67 302 2.0 8.0 0.00 0.00 0.00 70 992.6
20260506143004 67 249 3.0 9.0 0.00 0.00 0.00 69 992.7
20260506142004 67 326 3.0 12.0 0.00 0.00 0.00 70 992.7
20260506141004 66 225 3.0 10.0 0.00 0.00 0.00 72 992.7
20260506140504 66 184 3.0 13.0 0.00 0.00 0.00 72 992.7
20260506140005 66 240 3.0 8.0 0.00 0.00 0.00 72 992.6
20260506135504 66 322 2.0 7.0 0.00 0.00 0.00 73 992.6
20260506135004 66 12 3.0 12.0 0.00 0.00 0.00 73 992.5
20260506134504 66 209 2.0 8.0 0.00 0.00 0.00 74 992.5
20260506134004 66 228 4.0 8.0 0.00 0.00 0.00 73 992.3
20260506133504 66 251 3.0 8.0 0.00 0.00 0.00 74 992.5
20260506133004 66 206 3.0 8.0 0.00 0.00 0.00 74 992.5
20260506132504 66 246 2.0 6.0 0.00 0.00 0.00 74 992.6
20260506132005 65 197 3.0 13.0 0.00 0.00 0.00 75 992.8
20260506131504 65 181 3.0 10.0 0.00 0.00 0.00 75 992.7
20260506131004 65 188 2.0 8.0 0.00 0.00 0.00 77 992.6
20260506130505 64 212 2.0 7.0 0.00 0.00 0.00 77 992.8
20260506130005 64 171 2.0 5.0 0.00 0.00 0.00 77 993.1
20260506125004 64 199 2.0 8.0 0.00 0.00 0.00 78 993.1
20260506124504 63 241 3.0 15.0 0.00 0.00 0.00 78 993.3
20260506124004 63 197 5.0 15.0 0.00 0.00 0.00 78 993.3
20260506123504 64 217 3.0 14.0 0.00 0.00 0.00 78 993.2
20260506123004 64 211 3.0 10.0 0.00 0.00 0.00 77 993.4
20260506122504 65 233 2.0 8.0 0.00 0.00 0.00 76 993.3
20260506122004 63 259 3.0 8.0 0.00 0.00 0.00 79 993.0
20260506121504 63 166 3.0 12.0 0.00 0.00 0.00 80 993.1
20260506121004 63 242 2.0 7.0 0.00 0.00 0.00 80 993.2
20260506120005 62 230 3.0 9.0 0.00 0.00 0.00 81 993.1
20260506115505 62 244 3.0 10.0 0.00 0.00 0.00 81 993.2
20260506115005 62 194 4.0 16.0 0.00 0.00 0.00 81 993.1
20260506114504 61 176 2.0 9.0 0.00 0.00 0.00 82 993.1
20260506114005 61 201 3.0 7.0 0.00 0.00 0.00 83 993.0
20260506113504 61 173 3.0 7.0 0.00 0.00 0.00 83 992.9
20260506113004 61 240 1.0 7.0 0.00 0.00 0.00 83 992.9
20260506112004 61 262 2.0 8.0 0.00 0.00 0.00 83 993.2
20260506111504 60 329 2.0 9.0 0.00 0.00 0.00 84 993.6
20260506110504 59 177 3.0 8.0 0.00 0.00 0.00 86 993.4
20260506110004 59 191 2.0 8.0 0.00 0.00 0.00 86 993.5
20260506105504 59 186 3.0 7.0 0.00 0.00 0.00 86 993.3
20260506104504 59 253 1.0 6.0 0.00 0.00 0.00 85 993.2
20260506104004 59 173 1.0 8.0 0.00 0.00 0.00 85 993.1
20260506103505 59 206 1.0 9.0 0.00 0.00 0.00 86 993.1
20260506103004 58 179 3.0 8.0 0.00 0.00 0.00 87 993.1
20260506102504 58 160 1.0 3.0 0.00 0.00 0.00 87 993.3
20260506102005 58 175 2.0 7.0 0.00 0.00 0.00 87 993.3
20260506101504 58 149 1.0 5.0 0.00 0.00 0.00 87 993.2
20260506100504 58 174 2.0 6.0 0.00 0.00 0.00 87 993.1
20260506100004 58 249 1.0 6.0 0.00 0.00 0.00 87 993.0
20260506095505 58 248 1.0 6.0 0.00 0.00 0.00 87 993.1
20260506095004 58 153 2.0 7.0 0.00 0.00 0.00 87 993.2
20260506094504 58 173 1.0 6.0 0.00 0.00 0.00 87 993.2
20260506094004 58 137 3.0 10.0 0.00 0.00 0.00 87 993.1
20260506093504 58 226 1.0 6.0 0.00 0.00 0.00 87 993.0
20260506092504 58 288 2.0 10.0 0.00 0.00 0.00 86 993.0
20260506092004 58 181 2.0 8.0 0.00 0.00 0.00 87 992.9
20260506091504 58 182 2.0 5.0 0.00 0.00 0.00 87 993.0
20260506091004 58 225 2.0 8.0 0.00 0.00 0.00 87 993.0
20260506090505 58 180 1.0 5.0 0.00 0.00 0.00 86 993.0
20260506090004 58 190 1.0 3.0 0.00 0.00 0.00 86 993.0
20260506085504 58 256 1.0 7.0 0.00 0.00 0.00 86 993.1
20260506085004 58 184 2.0 7.0 0.00 0.00 0.00 86 993.2
20260506084505 58 202 1.0 5.0 0.00 0.00 0.00 86 993.3
20260506084004 58 223 1.0 6.0 0.00 0.00 0.00 85 993.2
20260506083504 58 190 1.0 6.0 0.00 0.00 0.00 85 993.3
20260506083004 58 187 1.0 5.0 0.00 0.00 0.00 85 993.3
20260506082504 59 158 2.0 7.0 0.00 0.00 0.00 84 993.1
20260506081504 59 174 1.0 7.0 0.00 0.00 0.00 84 993.1
20260506081005 59 249 1.0 6.0 0.00 0.00 0.00 84 993.2
20260506080504 59 153 2.0 7.0 0.00 0.00 0.00 83 993.2
20260506073504 59 176 4.0 9.0 0.00 0.00 0.00 81 993.1
20260506073004 59 263 1.0 6.0 0.00 0.00 0.00 81 993.3
20260506072504 60 182 2.0 7.0 0.00 0.00 0.00 81 993.3
20260506072003 60 209 3.0 10.0 0.00 0.00 0.00 81 993.5
20260506071004 59 189 1.0 3.0 0.00 0.00 0.00 81 993.2
20260506070504 59 207 2.0 7.0 0.00 0.00 0.00 81 993.2
20260506062504 60 273 1.0 5.0 0.00 0.00 0.00 79 993.1
20260506062004 60 116 1.0 6.0 0.00 0.00 0.00 79 993.2
20260506061504 60 193 1.0 8.0 0.00 0.00 0.00 79 993.3
20260506061004 61 105 3.0 8.0 0.00 0.00 0.00 78 993.1
20260506060504 61 174 1.0 6.0 0.00 0.00 0.00 78 993.3
20260506051004 62 256 3.0 10.0 0.00 0.00 0.00 76 993.5
20260506050504 62 63 3.0 12.0 0.00 0.00 0.00 75 993.5
20260506045005 62 169 2.0 12.0 0.00 0.00 0.00 74 993.6
20260506044004 63 256 2.0 10.0 0.00 0.00 0.00 74 993.7
20260506043504 63 142 2.0 9.0 0.00 0.00 0.00 73 993.6
20260506043004 63 187 3.0 13.0 0.00 0.00 0.00 73 993.6
20260506042504 63 246 3.0 12.0 0.00 0.00 0.00 72 993.8
20260506042004 63 292 3.0 12.0 0.00 0.00 0.00 72 993.5
20260506041004 63 218 4.0 9.0 0.00 0.00 0.00 71 993.7
20260506040504 63 349 3.0 9.0 0.00 0.00 0.00 71 993.6
20260506040004 63 210 3.0 10.0 0.00 0.00 0.00 70 993.8
20260506035004 63 192 3.0 12.0 0.00 0.00 0.00 69 993.6
20260506034504 64 220 4.0 14.0 0.00 0.00 0.00 68 993.6
20260506034004 64 243 4.0 16.0 0.00 0.00 0.00 68 993.7
20260506033005 64 221 3.0 8.0 0.00 0.00 0.00 67 993.7
20260506032504 64 154 2.0 10.0 0.00 0.00 0.00 67 993.6
20260506032004 64 185 4.0 10.0 0.00 0.00 0.00 67 993.8